Flight Track Log - Related Links

Times and Time Zones

All times are in EDT time to prevent confusion due to time zone crossing. See the FLG3861 flight status page for this flight to view local times or setup timezone preferences in your user account.

Time Position Orientation Groundspeed Altitude Reporting Facility
EDT Latitude Longitude Course Direction KTS MPH feet Rate Location/Type
09:50PM 42.2339 -83.3317 39° Northeast 157 181 1,300  Level Cleveland Center
09:51PM 42.2958 -83.2642 39° Northeast 217 250 4,400 1,817 Climbing Cleveland Center
09:52PM 42.2989 -83.2614 34° Northeast 193 222 4,600 2,557 Climbing Cleveland Center
09:52PM 42.3525 -83.2069 37° Northeast 264 304 7,000 3,049 Climbing Cleveland Center
09:53PM 42.3669 -83.1906 40° Northeast 253 291 7,700 1,800 Climbing Cleveland Center
09:54PM 42.3869 -83.0872 75° East 289 333 9,400 1,463 Climbing Cleveland Center
09:55PM 42.3836 -82.9689 92° East 311 358 10,700 1,672 Climbing Cleveland Center
09:56PM 42.3800 -82.8358 92° East 352 405 12,800 1,707 Climbing Cleveland Center
09:57PM 42.3764 -82.6958 92° East 372 428 14,200 1,171 Climbing Cleveland Center
09:58PM 42.3725 -82.5475 92° East 392 451 15,200 976 Climbing Cleveland Center
09:59PM 42.3675 -82.3897 92° East 415 478 16,200 976 Climbing Cleveland Center
10:00PM 42.3606 -82.2281 93° East 426 490 17,200 1,122 Climbing Cleveland Center
10:01PM 42.3533 -82.0450 93° East 436 502 18,500 1,122 Climbing Cleveland Center
10:02PM 42.3458 -81.8775 93° East 439 505 19,500 1,033 Climbing Cleveland Center
10:03PM 42.3386 -81.7075 93° East 443 510 20,600 927 Climbing Cleveland Center
10:04PM 42.3294 -81.5364 94° East 447 514 21,400 732 Climbing Cleveland Center
10:05PM 42.3214 -81.3636 94° East 451 519 22,100 585 Climbing Cleveland Center
10:06PM 42.3122 -81.1858 94° East 464 534 22,600 488 Climbing Cleveland Center
10:07PM 42.3028 -81.0050 94° East 472 543 23,100 537 Climbing Cleveland Center
10:08PM 42.2925 -80.7942 94° East 477 549 23,700 537 Climbing Cleveland Center
10:09PM 42.2831 -80.6142 94° East 475 547 24,200 488 Climbing Cleveland Center
10:10PM 42.2722 -80.4306 94° East 483 556 24,700 488 Climbing Cleveland Center
10:11PM 42.2617 -80.2475 94° East 483 556 25,200 488 Climbing Cleveland Center
10:12PM 42.2508 -80.0650 95° East 483 556 25,700 537 Climbing Cleveland Center
10:13PM 42.2383 -79.8764 95° East 478 550 26,300 541 Climbing Cleveland Center
10:14PM 42.2272 -79.6981 95° East 480 552 26,800 488 Climbing Cleveland Center
10:15PM 42.2156 -79.5211 95° East 479 551 27,300 488 Climbing Cleveland Center
10:16PM 42.2039 -79.3431 95° East 478 550 27,800 341 Climbing Cleveland Center
10:17PM 42.1922 -79.1642 95° East 478 550 28,000 98 Climbing Cleveland Center
10:18PM 42.1906 -78.9800 91° East 492 566 28,000 -295 Level Cleveland Center
10:19PM 42.1958 -78.7833 88° East 497 572 27,400 -488 Descending Cleveland Center
10:20PM 42.1981 -78.5917 89° East 512 589 27,000 -585 Descending Cleveland Center
10:21PM 42.2014 -78.4022 89° East 511 588 26,200 -885 Descending Cleveland Center
10:22PM 42.2039 -78.2064 89° East 520 598 25,200 -585 Descending Cleveland Center
10:23PM 42.2058 -77.9742 89° East 521 600 25,000 -537 Descending Cleveland Center
10:25PM 42.2075 -77.7814 89° East 520 598 24,100 -934 Descending Cleveland Center
10:26PM 42.2089 -77.5908 89° East 520 598 23,100 -829 Descending Cleveland Center
10:27PM 42.2094 -77.4072 90° East 500 575 22,400 -829 Descending Cleveland Center
10:28PM 42.2103 -77.2258 90° East 493 567 21,400 -984 Descending Cleveland Center
10:29PM 42.2106 -77.0467 90° East 487 560 20,400 -1,073 Descending Cleveland Center
10:30PM 42.2119 -76.8378 89° East 472 543 19,200 -1,317 Descending Cleveland Center
10:31PM 42.2097 -76.6653 91° East 468 539 17,700 -2,262 Descending Cleveland Center
10:32PM 42.2017 -76.5003 94° East 454 522 14,600 -2,902 Descending Cleveland Center
10:33PM 42.1531 -76.3769 118° Southeast 415 478 11,800 -1,902 Descending Cleveland Center
10:34PM 42.0989 -76.2511 120° Southeast 364 419 10,700 -1,569 Descending Cleveland Center
10:35PM 42.0461 -76.1300 120° Southeast 329 379 8,400 -2,140 Descending New York Center
10:36PM 42.0044 -76.0347 120° Southeast 307 353 6,100 -1,934 Descending New York Center
10:37PM 41.9894 -75.9525 104° East 265 305 4,500 -1,059 Descending New York Center
10:38PM 41.9972 -75.8694 83° East 241 277 4,000 -300 Descending New York Center
10:39PM 42.0475 -75.8564 11° North 157 181 3,900 -50 Descending New York Center
10:40PM 42.0819 -75.8786 334° Northwest 152 175 3,900 -100 Level New York Center
10:41PM 42.1142 -75.9036 330° Northwest 145 167 3,700 -450 Descending New York Center
10:42PM 42.1425 -75.9281 327° Northwest 133 153 3,000 -700 Descending New York Center
10:43PM 42.1728 -75.9500 332° Northwest 126 145 2,300 -504 Descending New York Center
10:44PM 42.2047 -75.9778 327° Northwest 126 145 2,000 -305 Descending New York Center

Login

Don't have an account? Register now (free) for customized features, flight alerts, and more!